[[{"header":{"parameterUnit":"m.s-1","parameterCategory":1,"la1":30.2991,"la2":30.254,"lo1":-89.0895,"lo2":-89.0444,"dy":0.0017,"dx":0.0017,"nx":28,"ny":28,"refTime":"2024-03-12T03:00:00:Z","depth":0,"parameterNumber":2,"parameterNumberName":"U-component_of_WINDS"},"data":[0,0,0,0,0,0,0,0,0,0,0,0,0,0,0,0,0,0,0,0,0,0,0,0,0,0,0,0,0,0,0,0,0,0,0,0,0,0,0,0,0,0,0,0,0,0,0,0,0,0,0,0,0,0,0,0,0,0,-3.5846,-3.5846,0,-3.5822,-3.5822,-3.5822,-3.5763,-3.5761,-3.576,-3.5759,-3.5731,-3.5731,-3.5732,0,0,0,0,0,0,0,0,0,0,0,0,0,-3.5842,-3.5842,-3.5846,-3.5846,-3.5846,-3.5822,-3.5822,-3.5822,-3.5763,-3.5761,-3.576,-3.5758,-3.5731,-3.5731,-3.5732,0,0,0,0,0,0,0,0,0,0,0,0,0,-3.5833,-3.5842,-3.5846,-3.5814,-3.581,-3.5822,-3.5822,-3.5822,-3.5763,-3.5761,-3.5759,-3.5758,-3.5731,-3.5731,-3.5732,-3.5773,0,0,-3.5734,-3.5734,0,0,0,0,0,0,0,0,-3.5834,-3.5834,-3.5819,-3.5816,-3.5812,-3.5794,-3.581,-3.5805,-3.5764,-3.5781,-3.5759,-3.5757,-3.5753,-3.5752,-3.5751,-3.5771,-3.577,-3.5734,-3.5734,-3.5735,-3.5735,0,0,0,0,0,0,0,-3.5835,-3.5834,-3.5837,-3.5819,-3.5815,-3.58,-3.5797,-3.5809,-3.5778,-3.5779,-3.5775,-3.5773,-3.5751,-3.5751,-3.575,-3.577,-3.5734,-3.5734,-3.5735,-3.5735,-3.5825,-3.5827,0,0,0,0,0,0,-3.584,-3.5835,-3.5837,-3.5836,-3.5819,-3.5802,-3.5798,-3.5801,-3.5777,-3.5772,-3.5775,-3.5771,-3.5751,-3.575,-3.5749,-3.5795,-3.5735,-3.5735,-3.5735,-3.5823,-3.5826,-3.5828,0,0,0,0,0,0,-3.584,-3.5841,-3.5838,-3.5835,-3.5833,-3.5804,-3.5808,-3.5802,-3.5801,-3.5774,-3.5768,-3.578,-3.5749,-3.5748,-3.5768,-3.5793,-3.5735,-3.5736,-3.5821,-3.5824,-3.5827,-3.5888,0,0,0,0,0,0,-3.584,-3.5841,-3.5856,-3.5835,-3.5834,-3.5858,-3.581,-3.5803,-3.5803,-3.5797,-3.5777,-3.5772,-3.5748,-3.5768,-3.5769,-3.5793,-3.5736,-3.5818,-3.5822,-3.5826,-3.5884,-3.5893,-3.5901,0,0,0,0,0,-3.584,-3.5873,-3.5857,-3.5857,-3.5851,-3.5859,-3.5858,-3.583,-3.5805,-3.582,-3.5803,-3.5773,-3.5792,-3.577,-3.5771,-3.5796,-3.5816,-3.5821,-3.5825,-3.588,-3.5891,-3.5901,0,0,0,0,0,0,-3.5894,-3.5869,-3.5851,-3.5878,-3.5872,-3.5849,-3.5866,-3.5843,-3.5842,-3.5836,-3.5801,-3.5797,-3.5822,-3.5812,-3.5788,-3.5836,-3.5799,-3.5804,-3.5841,-3.5851,-3.586,-3.586,-3.5737,0,0,0,0,0,-3.591,-3.5919,-3.5896,-3.5922,-3.592,-3.5895,-3.5897,-3.5877,-3.5868,-3.5864,-3.5848,-3.5841,-3.5845,-3.5848,-3.5851,-3.5884,-3.5879,-3.5903,-3.5911,-3.5919,-3.5922,-3.594,-3.595,-3.5843,-3.5843,-3.5843,0,0,-3.594,-3.5928,-3.5935,-3.5933,-3.5925,-3.5936,-3.5892,-3.5904,-3.5911,-3.5866,-3.5883,-3.5873,-3.5862,-3.589,-3.5901,-3.5881,-3.5952,-3.5924,-3.593,-3.5929,-3.5946,-3.5956,-3.5965,-3.5846,-3.5845,-3.5845,0,0,-3.6001,-3.5993,-3.6014,-3.6009,-3.6,-3.5983,-3.5989,-3.5972,-3.5963,-3.5982,-3.5949,-3.5958,-3.5966,-3.596,-3.5958,-3.6025,-3.5996,-3.6027,-3.607,-3.6088,-3.6096,-3.6104,-3.6126,-3.6135,-3.6031,-3.6031,-3.6031,0,-3.604,-3.6054,-3.6028,-3.6043,-3.6043,-3.6007,-3.6028,-3.6024,-3.6016,-3.6017,-3.5997,-3.6009,-3.5999,-3.6025,-3.6042,-3.6043,-3.6048,-3.6026,-3.6098,-3.6105,-3.6111,-3.6132,-3.6141,-3.6035,-3.6034,-3.6034,-3.6034,0,-3.6102,-3.6113,-3.6131,-3.6126,-3.6129,-3.6148,-3.6125,-3.6132,-3.6114,-3.61,-3.6121,-3.6109,-3.6109,-3.6115,-3.6096,-3.614,-3.6128,-3.6104,-3.6066,-3.6125,-3.6144,-3.6152,-3.604,-3.6039,-3.6038,-3.6037,0,0,-3.6188,-3.6174,-3.6181,-3.6179,-3.6169,-3.6177,-3.6196,-3.6198,-3.6204,-3.6202,-3.6216,-3.6227,-3.6206,-3.6204,-3.6185,-3.6202,-3.6255,-3.6175,-3.6175,-3.6189,-3.6302,-3.6318,-3.6328,-3.6239,-3.6241,-3.6242,-3.6303,0,-3.6244,-3.6273,-3.6254,-3.6286,-3.6297,-3.6266,-3.6282,-3.6278,-3.6268,-3.6276,-3.6264,-3.6272,-3.6244,-3.6243,-3.6259,-3.6245,-3.6277,-3.6241,-3.625,-3.6251,-3.625,-3.6338,-3.6354,-3.6411,-3.631,-3.6311,-3.6312,0,-3.6311,-3.6314,-3.6348,-3.6339,-3.6343,-3.6357,-3.636,-3.6368,-3.6365,-3.6356,-3.6358,-3.6336,-3.6355,-3.6322,-3.6347,-3.6323,-3.6327,-3.6322,-3.6324,-3.632,-3.6282,-3.6334,-3.6429,-3.6436,-3.6324,-3.6323,-3.6322,0,-3.6369,-3.6382,-3.6404,-3.6404,-3.6395,-3.6406,-3.6403,-3.6398,-3.6402,-3.6405,-3.6407,-3.6413,-3.6414,-3.6419,-3.64,-3.6378,-3.6428,-3.6393,-3.642,-3.6421,-3.6427,-3.6426,-3.6521,-3.6436,-3.6436,-3.6436,-3.6436,0,-3.643,-3.6452,-3.643,-3.6443,-3.6468,-3.6447,-3.6472,-3.6466,-3.6463,-3.6475,-3.645,-3.6462,-3.6438,-3.6448,-3.6435,-3.6457,-3.6459,-3.6452,-3.6447,-3.6452,-3.6453,-3.645,-3.6445,-3.6438,-3.6438,-3.6437,-3.6437,0,-3.6496,-3.6483,-3.6505,-3.6497,-3.6495,-3.6514,-3.6506,-3.6519,-3.651,-3.6526,-3.6529,-3.6513,-3.6524,-3.6508,-3.6517,-3.6508,-3.6539,-3.653,-3.654,-3.6536,-3.6563,-3.656,-3.6656,-3.6668,-3.6579,-3.658,-3.6581,0,-3.6534,-3.655,-3.6545,-3.6552,-3.6551,-3.6563,-3.6568,-3.655,-3.6556,-3.6557,-3.657,-3.658,-3.6585,-3.6605,-3.6595,-3.6602,-3.6591,-3.6625,-3.6591,-3.6597,-3.6589,-3.6587,-3.6588,-3.663,-3.6631,-3.6632,-3.6633,0,-3.6602,-3.6596,-3.6605,-3.6612,-3.662,-3.6625,-3.6627,-3.6635,-3.6617,-3.6626,-3.6638,-3.6643,-3.6655,-3.6664,-3.667,-3.6667,-3.6647,-3.6645,-3.6651,-3.6653,-3.6658,-3.6654,-3.6555,-3.6641,-3.664,-3.6639,-3.6639,-3.6639,-3.6653,-3.6667,-3.6667,-3.6678,-3.668,-3.6684,-3.6696,-3.669,-3.67,-3.6708,-3.6699,-3.6714,-3.6714,-3.672,-3.672,-3.6733,-3.6717,-3.6727,-3.6729,-3.673,-3.6734,-3.666,-3.6734,-3.6734,-3.6733,-3.6733,-3.6733,0,-3.6719,-3.6718,-3.6729,-3.6736,-3.6745,-3.673,-3.6734,-3.6742,-3.6756,-3.6759,-3.6767,-3.6783,-3.6794,-3.6787,-3.6797,-3.6808,-3.6799,-3.6811,-3.6807,-3.6807,-3.6747,-3.674,-3.6818,-3.6818,-3.6818,-3.6818,-3.6818,-3.6818,-3.6753,-3.6776,-3.6771,-3.6796,-3.6795,-3.6811,-3.6815,-3.6819,-3.6821,-3.684,-3.685,-3.6847,-3.6846,-3.6856,-3.6866,-3.6864,-3.6868,-3.6882,-3.6877,-3.682,-3.6811,-3.6803,-3.6796,-3.6884,-3.6884,-3.6935,-3.6935,-3.6936]},{"header":{"parameterUnit":"m.s-1","parameterCategory":1,"la1":30.2991,"la2":30.254,"lo1":-89.0895,"lo2":-89.0444,"dy":0.0017,"dx":0.0017,"nx":28,"ny":28,"refTime":"2024-03-12T03:00:00:Z","depth":0,"parameterNumber":3,"parameterNumberName":"V-component_of_WINDS"},"data":[0,0,0,0,0,0,0,0,0,0,0,0,0,0,0,0,0,0,0,0,0,0,0,0,0,0,0,0,0,0,0,0,0,0,0,0,0,0,0,0,0,0,0,0,0,0,0,0,0,0,0,0,0,0,0,0,0,0,0.8522,0.8523,0,0.8578,0.8579,0.858,0.8639,0.8639,0.864,0.8641,0.8703,0.8704,0.8705,0,0,0,0,0,0,0,0,0,0,0,0,0,0.8469,0.847,0.8522,0.8523,0.8524,0.8578,0.8579,0.858,0.8638,0.8639,0.864,0.8641,0.8702,0.8704,0.8705,0,0,0,0,0,0,0,0,0,0,0,0,0,0.8506,0.847,0.8522,0.8559,0.8563,0.8578,0.8579,0.858,0.8638,0.8639,0.8641,0.8642,0.8702,0.8703,0.8705,0.8689,0,0,0.8709,0.8709,0,0,0,0,0,0,0,0,0.8503,0.8507,0.8553,0.8557,0.8561,0.8603,0.8583,0.8617,0.8638,0.861,0.8641,0.8642,0.8669,0.8673,0.8681,0.8692,0.8694,0.8709,0.871,0.871,0.8711,0,0,0,0,0,0,0,0.8501,0.8505,0.8545,0.8554,0.8559,0.8574,0.8581,0.859,0.8632,0.8612,0.8617,0.8622,0.8671,0.8679,0.8683,0.8695,0.8709,0.871,0.8711,0.8711,0.8696,0.8695,0,0,0,0,0,0,0.8492,0.8503,0.8543,0.8546,0.8535,0.8574,0.8582,0.8588,0.8632,0.864,0.8621,0.8625,0.8677,0.8681,0.8685,0.867,0.871,0.8712,0.8712,0.8697,0.8696,0.8694,0,0,0,0,0,0,0.8491,0.8495,0.8541,0.8526,0.8533,0.8574,0.8581,0.8589,0.8597,0.8639,0.8647,0.8622,0.8678,0.8683,0.8687,0.8673,0.8712,0.8713,0.8698,0.8697,0.8695,0.8638,0,0,0,0,0,0,0.8489,0.8494,0.8488,0.8525,0.8533,0.854,0.858,0.8589,0.8599,0.8604,0.8641,0.8649,0.8679,0.8685,0.8688,0.8675,0.8714,0.87,0.8698,0.8695,0.8642,0.8635,0.8629,0,0,0,0,0,0.8487,0.8471,0.8487,0.8492,0.8526,0.8539,0.8544,0.8578,0.8597,0.8592,0.8618,0.8648,0.8673,0.8685,0.8689,0.8676,0.8701,0.8698,0.8696,0.8644,0.8636,0.8629,0,0,0,0,0,0,0.8433,0.8476,0.8495,0.849,0.851,0.8549,0.8544,0.8568,0.8585,0.8589,0.8632,0.864,0.8639,0.8658,0.867,0.8663,0.8691,0.8689,0.8651,0.8643,0.8637,0.8633,0.8716,0,0,0,0,0,0.8419,0.8426,0.8464,0.8456,0.8465,0.8502,0.8509,0.8533,0.8557,0.8566,0.8593,0.8616,0.8629,0.8637,0.8651,0.8644,0.8654,0.8637,0.8631,0.8625,0.8624,0.8622,0.8615,0.8685,0.8685,0.8685,0,0,0.8394,0.8418,0.842,0.8446,0.8464,0.8471,0.8509,0.8514,0.852,0.8568,0.8573,0.8593,0.8621,0.8619,0.8619,0.8635,0.8606,0.8622,0.8617,0.8619,0.8618,0.8611,0.8605,0.8683,0.8684,0.8684,0,0,0.835,0.8369,0.8364,0.8381,0.8408,0.8433,0.8431,0.8466,0.8481,0.8486,0.8522,0.853,0.8551,0.857,0.8582,0.8543,0.8571,0.8547,0.8514,0.8511,0.8506,0.8501,0.8488,0.8483,0.8545,0.8545,0.8545,0,0.8315,0.8325,0.8359,0.8362,0.8373,0.8414,0.841,0.8425,0.8456,0.8463,0.8479,0.8506,0.8528,0.8531,0.8522,0.853,0.8531,0.8544,0.8504,0.8499,0.8496,0.8484,0.8479,0.8542,0.8542,0.8542,0.8543,0,0.8281,0.8287,0.8281,0.8307,0.8317,0.8316,0.8351,0.8357,0.838,0.8403,0.8408,0.8435,0.8456,0.8458,0.8481,0.8464,0.8473,0.8495,0.8525,0.8485,0.8475,0.847,0.8537,0.8538,0.8539,0.854,0,0,0.8207,0.8251,0.8248,0.826,0.8292,0.8298,0.83,0.8318,0.8322,0.8342,0.8345,0.8361,0.8382,0.8396,0.8421,0.8419,0.8387,0.8442,0.8443,0.8432,0.8371,0.8354,0.8348,0.8405,0.8404,0.8403,0.8369,0,0.817,0.8173,0.8203,0.8199,0.8206,0.8244,0.8245,0.8265,0.8286,0.8296,0.832,0.8331,0.8357,0.8366,0.8365,0.8391,0.8376,0.8394,0.8409,0.841,0.8402,0.8343,0.8326,0.8292,0.8365,0.8364,0.8364,0,0.8127,0.8142,0.8138,0.8169,0.8173,0.8173,0.8192,0.82,0.8224,0.8239,0.8253,0.8281,0.8286,0.8312,0.8319,0.8331,0.8339,0.8353,0.8352,0.8356,0.8385,0.8346,0.8282,0.8277,0.8357,0.8358,0.8358,0,0.8075,0.8094,0.8093,0.8103,0.8139,0.8138,0.8153,0.8178,0.8187,0.8204,0.821,0.8228,0.8238,0.8251,0.8283,0.8299,0.8287,0.8316,0.8301,0.8301,0.8299,0.8299,0.8235,0.8301,0.8301,0.8302,0.8302,0,0.8031,0.8027,0.807,0.807,0.8067,0.8101,0.8098,0.8117,0.8138,0.8143,0.8177,0.8182,0.8223,0.8233,0.8258,0.826,0.8264,0.8278,0.8285,0.8276,0.8274,0.8283,0.8287,0.83,0.8301,0.8301,0.8301,0,0.7973,0.8001,0.8003,0.8036,0.8044,0.8041,0.807,0.8072,0.8094,0.81,0.8103,0.8139,0.8152,0.8184,0.8206,0.8223,0.8219,0.8231,0.8211,0.8215,0.8199,0.8201,0.814,0.8135,0.8203,0.8202,0.8201,0,0.7943,0.7941,0.7973,0.7978,0.7991,0.7999,0.8008,0.8042,0.8049,0.8075,0.8074,0.8089,0.8103,0.8121,0.815,0.8167,0.818,0.8158,0.8183,0.8174,0.8181,0.8181,0.8182,0.8153,0.8152,0.8151,0.8151,0,0.7889,0.7903,0.7913,0.7928,0.7937,0.7951,0.7967,0.797,0.8007,0.8015,0.8027,0.8037,0.8058,0.8073,0.8094,0.8111,0.8137,0.8142,0.814,0.8131,0.8119,0.8126,0.8197,0.8144,0.8145,0.8145,0.8145,0.8146,0.7846,0.7845,0.7867,0.7878,0.7892,0.7906,0.7909,0.7931,0.7941,0.796,0.7979,0.7989,0.8013,0.8043,0.8058,0.8067,0.8081,0.8078,0.8077,0.8076,0.8072,0.8116,0.8071,0.8072,0.8072,0.8072,0.8072,0,0.7794,0.7809,0.7818,0.7839,0.7847,0.7868,0.7887,0.7893,0.7901,0.7919,0.7931,0.7946,0.7959,0.7988,0.8005,0.8007,0.802,0.801,0.8012,0.8015,0.8058,0.8059,0.8,0.8,0.8,0.8,0.8,0.8,0.7768,0.7769,0.7785,0.7793,0.7809,0.7818,0.7826,0.7839,0.7854,0.7868,0.7879,0.7897,0.792,0.7938,0.7952,0.796,0.7966,0.7953,0.7965,0.8005,0.8012,0.8019,0.802,0.7953,0.7953,0.7921,0.7921,0.7921]}]]